Location: Altleiningen
(49.5078°N, 8.0741°E)
Time: 22:53:05
(UTC+00:00)

Cosmos 1727 Rocket - Pass Details

Date: 03 March 2021
Orbit: 961 x 996 km, 82.9° (Epoch: 13 April)

Event Time Altitude Azimuth Distance (km) Brightness Sun altitude
Rises 18:41:13 0° 354° (N) 3,659 7.2 -14.9°
Reaches altitude 10° 18:43:56 10° 3° (N) 2,709 6.4 -15.4°
Maximum altitude 18:49:40 38° 71° (ENE) 1,427 4.4 -16.3°
Enters shadow 18:52:57 23° 124° (ESE) 1,944 5.0 -16.8°
